{"data":{"norad_id":59141,"intl_designator":"2024-043AV","name":"TIGER-7","alt_names":[],"object_type":"PAYLOAD","status":"ACTIVE","operator":null,"country":"RWA","launch_date":"2024-03-04","launch_site_code":"AFWTR","launch_vehicle":null,"mission":null,"orbit_class":"UNKNOWN","rcs_meters":null,"size_class":null,"mass_kg":null,"dimensions":null,"purposes":[],"wikipedia_slug":null,"has_3d_model":false,"image_url":null,"decayed_at":null,"tle_current":{"epoch":"2026-05-24T23:54:17.044704Z","epoch_age_seconds":71544,"freshness":"FRESH","line1":"1 59141U 24043AV  26144.99603061  .00011990  00000+0  23168-3 0  9996","line2":"2 59141  97.5458 294.9539 0004800 250.5379 109.5352 15.47932839124388","mean_motion":15.47932839,"eccentricity":0.00048,"inclination_deg":97.5458,"raan_deg":294.9539,"arg_perigee_deg":250.5379,"mean_anomaly_deg":109.5352,"bstar":0.00023168,"rev_number":12438,"period_min":93.027291864308,"perigee_km":419.50967702165,"apogee_km":426.03855169143,"semimajor_km":6800.9111143565,"source":"CELESTRAK","updated_at":"2026-05-25T13:38:01.199240Z"}}}